AFL788 UACC-UDYZ

Flight info

Callsign AFL788
Flight time N/A
Altitude 36000
Route VETUB7G VETUB P574 OGANU N55 TITIL N161 RELGE/K0835F380 N161 GASBI/N0451F380 N161 LEYLA T916 SEVAN
Aircraft A320/M-SDE3FGHIRWY/LB1

Departure

Time 2026-04-21 14:09
Airport Nursultan Nazarbayev International Airport (UACC)

Arrival

Time N/A
Airport Zvartnots International Airport (UDYZ)
Time Latitude Longitude Altitude Speed Heading
2026-04-21 13:45 51.02792 71.46473 1167 ft 0 kts 314°
2026-04-21 14:00 51.02775 71.46498 1166 ft 4 kts 320°
2026-04-21 14:01 51.02754 71.46524 1166 ft 4 kts 329°
2026-04-21 14:01 51.02730 71.46543 1166 ft 4 kts 342°
2026-04-21 14:01 51.02704 71.46549 1165 ft 4 kts 12°
2026-04-21 14:01 51.02689 71.46539 1165 ft 1 kts 41°
2026-04-21 14:02 51.02687 71.46536 1165 ft 0 kts 41°
2026-04-21 14:04 51.02697 71.46553 1167 ft 5 kts 49°
2026-04-21 14:05 51.02706 71.46601 1166 ft 8 kts 90°
2026-04-21 14:05 51.02654 71.46714 1166 ft 13 kts 124°
2026-04-21 14:05 51.02691 71.46836 1168 ft 17 kts 44°
2026-04-21 14:05 51.02788 71.46985 1169 ft 21 kts 44°
2026-04-21 14:06 51.02904 71.47168 1168 ft 25 kts 44°
2026-04-21 14:06 51.03039 71.47377 1166 ft 29 kts 44°
2026-04-21 14:06 51.03192 71.47609 1168 ft 32 kts 44°
2026-04-21 14:06 51.03341 71.47842 1168 ft 23 kts 45°
2026-04-21 14:07 51.03412 71.47955 1166 ft 7 kts 45°
2026-04-21 14:07 51.03429 71.48017 1169 ft 6 kts 85°
2026-04-21 14:07 51.03432 71.48071 1169 ft 4 kts 85°
2026-04-21 14:07 51.03435 71.48151 1169 ft 11 kts 87°
2026-04-21 14:08 51.03423 71.48264 1165 ft 10 kts 112°
2026-04-21 14:08 51.03380 71.48336 1166 ft 9 kts 168°
2026-04-21 14:08 51.03307 71.48264 1167 ft 25 kts 223°
2026-04-21 14:08 51.03000 71.47792 1168 ft 94 kts 225°
2026-04-21 14:09 51.02406 71.46862 1168 ft 146 kts 224°
2026-04-21 14:09 51.01599 71.45622 1475 ft 164 kts 225°
2026-04-21 14:09 51.00781 71.44368 2178 ft 165 kts 223°
2026-04-21 14:09 50.99938 71.43073 2698 ft 174 kts 223°
2026-04-21 14:10 50.99037 71.41681 3077 ft 188 kts 223°
2026-04-21 14:10 50.98064 71.40157 3399 ft 206 kts 224°
2026-04-21 14:10 50.96979 71.38448 3651 ft 233 kts 224°
2026-04-21 14:10 50.95852 71.36411 4034 ft 256 kts 240°
2026-04-21 14:11 50.95461 71.33612 4708 ft 270 kts 273°
2026-04-21 14:11 50.95945 71.30727 5633 ft 272 kts 291°
2026-04-21 14:11 50.96757 71.28011 6517 ft 274 kts 294°
2026-04-21 14:11 50.97529 71.25220 7275 ft 278 kts 282°
2026-04-21 14:12 50.97660 71.22172 8032 ft 279 kts 264°
2026-04-21 14:12 50.97425 71.19098 8830 ft 282 kts 261°
2026-04-21 14:12 50.97135 71.15998 9605 ft 286 kts 261°
2026-04-21 14:12 50.96832 71.12899 10327 ft 289 kts 260°
2026-04-21 14:13 50.96517 71.09726 11014 ft 296 kts 259°
2026-04-21 14:13 50.96185 71.06370 11221 ft 319 kts 259°
2026-04-21 14:13 50.95840 71.02843 11779 ft 326 kts 260°
2026-04-21 14:13 50.95493 70.99275 12522 ft 329 kts 260°
2026-04-21 14:14 50.95143 70.95667 13205 ft 332 kts 260°
2026-04-21 14:14 50.94788 70.92034 13891 ft 335 kts 260°
2026-04-21 14:14 50.94424 70.88353 14490 ft 339 kts 261°
2026-04-21 14:14 50.94056 70.84651 15086 ft 342 kts 261°
2026-04-21 14:15 50.93686 70.80917 15693 ft 344 kts 261°
2026-04-21 14:15 50.93096 70.77215 16300 ft 348 kts 250°
2026-04-21 14:15 50.91991 70.73781 16905 ft 353 kts 238°
2026-04-21 14:15 50.90575 70.70590 17510 ft 355 kts 237°
2026-04-21 14:16 50.89142 70.67380 18121 ft 358 kts 237°
2026-04-21 14:16 50.87702 70.64150 18634 ft 360 kts 237°
2026-04-21 14:16 50.86272 70.60936 19135 ft 363 kts 237°
2026-04-21 14:16 50.84817 70.57663 19655 ft 365 kts 237°
2026-04-21 14:17 50.83350 70.54366 20161 ft 367 kts 237°
2026-04-21 14:17 50.81874 70.51055 20669 ft 370 kts 237°
2026-04-21 14:17 50.80387 70.47727 21153 ft 372 kts 237°
2026-04-21 14:17 50.78886 70.44376 21636 ft 374 kts 237°
2026-04-21 14:18 50.77375 70.41012 22109 ft 377 kts 237°
2026-04-21 14:18 50.75852 70.37630 22588 ft 379 kts 237°
2026-04-21 14:18 50.74315 70.34223 23047 ft 382 kts 237°
2026-04-21 14:18 50.72771 70.30801 23484 ft 384 kts 237°
2026-04-21 14:19 50.71217 70.27362 23873 ft 386 kts 237°
2026-04-21 14:19 50.69656 70.23905 24261 ft 388 kts 237°
2026-04-21 14:19 50.68301 70.20214 24618 ft 387 kts 247°
2026-04-21 14:19 50.67348 70.16243 24985 ft 388 kts 252°
2026-04-21 14:20 50.66439 70.12217 25362 ft 390 kts 251°
2026-04-21 14:20 50.65522 70.08184 25725 ft 392 kts 251°
2026-04-21 14:20 50.64605 70.04175 26082 ft 394 kts 251°
2026-04-21 14:20 50.63672 70.00111 26434 ft 395 kts 251°
2026-04-21 14:21 50.62731 69.96027 26795 ft 397 kts 251°
2026-04-21 14:21 50.61786 69.91936 27157 ft 399 kts 251°
2026-04-21 14:21 50.60836 69.87821 27507 ft 400 kts 251°
2026-04-21 14:21 50.59884 69.83697 27850 ft 402 kts 251°
2026-04-21 14:22 50.58927 69.79556 28188 ft 404 kts 251°
2026-04-21 14:22 50.57960 69.75385 28524 ft 406 kts 251°
2026-04-21 14:22 50.56989 69.71211 28849 ft 407 kts 251°
2026-04-21 14:22 50.56009 69.67014 29177 ft 409 kts 251°
2026-04-21 14:23 50.55027 69.62807 29500 ft 411 kts 251°
2026-04-21 14:23 50.54040 69.58584 29805 ft 413 kts 251°
2026-04-21 14:23 50.53046 69.54339 30077 ft 414 kts 251°
2026-04-21 14:23 50.52059 69.50136 30324 ft 416 kts 251°
2026-04-21 14:24 50.51057 69.45862 30571 ft 417 kts 251°
2026-04-21 14:24 50.50050 69.41581 30815 ft 419 kts 251°
2026-04-21 14:24 50.49036 69.37289 31054 ft 420 kts 251°
2026-04-21 14:24 50.48012 69.32979 31285 ft 421 kts 251°
2026-04-21 14:25 50.46984 69.28658 31551 ft 422 kts 251°
2026-04-21 14:25 50.45961 69.24352 31893 ft 421 kts 251°
2026-04-21 14:25 50.44940 69.20057 32235 ft 420 kts 251°
2026-04-21 14:25 50.43919 69.15779 32573 ft 418 kts 251°
2026-04-21 14:26 50.42899 69.11516 32938 ft 416 kts 251°
2026-04-21 14:26 50.41880 69.07270 33290 ft 415 kts 251°
2026-04-21 14:26 50.40860 69.03039 33638 ft 414 kts 251°
2026-04-21 14:26 50.39845 68.98827 33930 ft 413 kts 251°
2026-04-21 14:27 50.38835 68.94623 34207 ft 412 kts 251°
2026-04-21 14:27 50.37828 68.90430 34473 ft 411 kts 251°
2026-04-21 14:27 50.36818 68.86243 34742 ft 410 kts 251°
2026-04-21 14:27 50.35808 68.82077 34996 ft 409 kts 251°
2026-04-21 14:28 50.34795 68.77918 35245 ft 408 kts 251°
2026-04-21 14:28 50.33785 68.73786 35550 ft 405 kts 250°
2026-04-21 14:28 50.32793 68.69726 35771 ft 404 kts 250°
2026-04-21 14:29 50.30799 68.61566 35827 ft 400 kts 250°
2026-04-21 14:29 50.28811 68.53460 35828 ft 399 kts 250°
2026-04-21 14:30 50.27152 68.46728 35820 ft 398 kts 250°
2026-04-21 14:30 50.24824 68.37287 35821 ft 398 kts 250°
2026-04-21 14:31 50.23161 68.30585 35818 ft 397 kts 250°
2026-04-21 14:31 50.21230 68.22503 35804 ft 397 kts 252°
2026-04-21 14:32 50.19492 68.14340 35804 ft 396 kts 253°
2026-04-21 14:32 50.17770 68.06168 35807 ft 396 kts 253°
2026-04-21 14:33 50.16014 67.98045 35809 ft 396 kts 252°
2026-04-21 14:33 50.14224 67.89910 35808 ft 396 kts 252°
2026-04-21 14:34 50.12425 67.81792 35814 ft 396 kts 252°
2026-04-21 14:34 50.10630 67.73679 35816 ft 396 kts 252°
2026-04-21 14:35 50.08831 67.65585 35815 ft 396 kts 252°
2026-04-21 14:35 50.07045 67.57544 35817 ft 396 kts 252°
2026-04-21 14:36 50.05237 67.49455 35818 ft 395 kts 251°
2026-04-21 14:36 50.03423 67.41380 35824 ft 395 kts 251°
2026-04-21 14:37 50.01599 67.33315 35824 ft 395 kts 251°
2026-04-21 14:37 49.99777 67.25256 35822 ft 394 kts 251°
2026-04-21 14:38 49.97963 67.17278 35818 ft 394 kts 251°
2026-04-21 14:38 49.96067 67.09292 35813 ft 394 kts 249°
2026-04-21 14:39 49.93880 67.01491 35817 ft 394 kts 247°
2026-04-21 14:39 49.91609 66.93746 35818 ft 394 kts 247°
2026-04-21 14:40 49.89366 66.85997 35818 ft 394 kts 247°
2026-04-21 14:40 49.87147 66.78234 35818 ft 393 kts 247°
2026-04-21 14:40 49.86044 66.74369 35444 ft 393 kts 246°
2026-04-21 14:41 49.84942 66.70502 35895 ft 394 kts 247°
2026-04-21 14:41 49.82699 66.62662 35811 ft 400 kts 247°
2026-04-21 14:42 49.80449 66.54842 35811 ft 400 kts 247°
2026-04-21 14:42 49.78176 66.46967 35810 ft 400 kts 247°
2026-04-21 14:43 49.75896 66.39107 35810 ft 400 kts 247°
2026-04-21 14:43 49.73613 66.31254 35812 ft 400 kts 247°
2026-04-21 14:44 49.71386 66.23370 35811 ft 400 kts 248°
2026-04-21 14:44 49.69180 66.15467 35809 ft 400 kts 248°
2026-04-21 14:45 49.66951 66.07585 35811 ft 400 kts 248°
2026-04-21 14:45 49.64714 65.99718 35812 ft 400 kts 248°
2026-04-21 14:46 49.62476 65.91849 35821 ft 400 kts 247°
2026-04-21 14:46 49.60249 65.84056 35828 ft 400 kts 247°
2026-04-21 14:47 49.58001 65.76228 35829 ft 399 kts 247°
2026-04-21 14:47 49.55755 65.68410 35828 ft 398 kts 247°
2026-04-21 14:48 49.53506 65.60625 35827 ft 398 kts 247°
2026-04-21 14:48 49.51251 65.52851 35823 ft 398 kts 247°
2026-04-21 14:49 49.48996 65.45088 35824 ft 397 kts 246°
2026-04-21 14:49 49.46735 65.37347 35821 ft 396 kts 246°
2026-04-21 14:50 49.44858 65.30921 35821 ft 396 kts 246°
2026-04-21 14:50 49.42208 65.21897 35820 ft 396 kts 246°
2026-04-21 14:51 49.39946 65.14198 35814 ft 395 kts 246°
2026-04-21 14:51 49.37679 65.06517 35818 ft 395 kts 246°
2026-04-21 14:52 49.35420 64.98895 35820 ft 395 kts 246°
2026-04-21 14:52 49.33101 64.91254 35818 ft 395 kts 245°
2026-04-21 14:53 49.30674 64.83703 35818 ft 395 kts 244°
2026-04-21 14:53 49.28233 64.76170 35820 ft 394 kts 244°
2026-04-21 14:54 49.25813 64.68632 35824 ft 394 kts 244°
2026-04-21 14:54 49.23394 64.61114 35822 ft 394 kts 244°
2026-04-21 14:55 49.20968 64.53596 35820 ft 393 kts 244°
2026-04-21 14:55 49.18543 64.46086 35819 ft 393 kts 244°
2026-04-21 14:56 49.16121 64.38651 35817 ft 393 kts 244°
2026-04-21 14:56 49.13687 64.31177 35821 ft 392 kts 244°
2026-04-21 14:57 49.11262 64.23714 35822 ft 392 kts 244°
2026-04-21 14:57 49.08827 64.16279 35821 ft 392 kts 244°
2026-04-21 14:58 49.06381 64.08856 35795 ft 392 kts 244°
2026-04-21 14:58 49.03930 64.01434 35802 ft 392 kts 244°
2026-04-21 14:59 49.01483 63.94025 35808 ft 391 kts 244°
2026-04-21 14:59 48.99037 63.86626 35812 ft 390 kts 244°
2026-04-21 15:00 48.96587 63.79253 35815 ft 390 kts 244°
2026-04-21 15:00 48.94149 63.71950 35817 ft 390 kts 244°
2026-04-21 15:01 48.91699 63.64604 35820 ft 389 kts 244°
2026-04-21 15:01 48.89238 63.57271 35820 ft 389 kts 244°
2026-04-21 15:02 48.86846 63.49891 35819 ft 388 kts 246°
2026-04-21 15:02 48.84683 63.42387 35819 ft 388 kts 247°
2026-04-21 15:03 48.82556 63.34867 35817 ft 388 kts 247°
2026-04-21 15:03 48.80383 63.27375 35814 ft 388 kts 246°
2026-04-21 15:04 48.78170 63.19924 35815 ft 387 kts 246°
2026-04-21 15:04 48.75973 63.12532 35819 ft 386 kts 246°
2026-04-21 15:05 48.73774 63.05101 35816 ft 386 kts 246°
2026-04-21 15:05 48.70463 62.93974 35814 ft 386 kts 246°
2026-04-21 15:06 48.68255 62.86577 35821 ft 385 kts 246°
2026-04-21 15:06 48.66043 62.79192 35820 ft 385 kts 246°
2026-04-21 15:07 48.63825 62.71816 35818 ft 385 kts 246°
2026-04-21 15:07 48.61583 62.64532 35818 ft 385 kts 244°
2026-04-21 15:08 48.59190 62.57303 35817 ft 384 kts 244°
2026-04-21 15:08 48.56769 62.50107 35811 ft 384 kts 244°
2026-04-21 15:09 48.54364 62.42893 35806 ft 384 kts 244°
2026-04-21 15:09 48.51964 62.35686 35808 ft 384 kts 244°
2026-04-21 15:10 48.49557 62.28483 35808 ft 384 kts 244°
2026-04-21 15:10 48.47166 62.21332 35808 ft 384 kts 244°
2026-04-21 15:11 48.44754 62.14136 35802 ft 387 kts 244°
2026-04-21 15:11 48.42287 62.06804 35798 ft 398 kts 243°
2026-04-21 15:12 48.39745 61.99293 35797 ft 407 kts 243°
2026-04-21 15:12 48.37148 61.91638 35793 ft 411 kts 243°
2026-04-21 15:13 48.34561 61.84007 35794 ft 409 kts 243°
2026-04-21 15:13 48.31975 61.76400 35797 ft 408 kts 243°
2026-04-21 15:14 48.29399 61.68865 35803 ft 409 kts 243°
2026-04-21 15:14 48.28095 61.65064 36004 ft 409 kts 243°
2026-04-21 15:14 48.26790 61.61263 36200 ft 408 kts 243°
2026-04-21 15:15 48.25487 61.57472 36415 ft 408 kts 243°
2026-04-21 15:15 48.24183 61.53686 36585 ft 408 kts 243°
2026-04-21 15:15 48.22873 61.49893 36759 ft 408 kts 243°
2026-04-21 15:15 48.21570 61.46112 36931 ft 408 kts 243°
2026-04-21 15:16 48.20282 61.42374 37094 ft 409 kts 243°
2026-04-21 15:16 48.18960 61.38542 37260 ft 409 kts 243°
2026-04-21 15:16 48.17671 61.34812 37417 ft 409 kts 243°
2026-04-21 15:16 48.16362 61.31035 37576 ft 409 kts 243°
2026-04-21 15:17 48.15051 61.27262 37753 ft 408 kts 243°
2026-04-21 15:17 48.13733 61.23481 37798 ft 409 kts 243°
2026-04-21 15:17 48.11094 61.15939 37794 ft 409 kts 243°
2026-04-21 15:18 48.08455 61.08398 37794 ft 409 kts 243°
2026-04-21 15:18 48.05817 61.00864 37796 ft 409 kts 243°
2026-04-21 15:19 48.03173 60.93347 37798 ft 409 kts 242°
2026-04-21 15:19 48.00516 60.85830 37809 ft 409 kts 242°
2026-04-21 15:20 47.97871 60.78351 37826 ft 410 kts 242°
2026-04-21 15:20 47.95212 60.70830 37829 ft 410 kts 242°
2026-04-21 15:21 47.92984 60.64574 37809 ft 410 kts 242°
2026-04-21 15:21 47.90310 60.57087 37833 ft 409 kts 242°
2026-04-21 15:22 47.87630 60.49611 37832 ft 409 kts 242°
2026-04-21 15:22 47.84960 60.42143 37830 ft 408 kts 242°
2026-04-21 15:23 47.82284 60.34692 37841 ft 408 kts 242°
2026-04-21 15:23 47.79600 60.27261 37839 ft 407 kts 242°
2026-04-21 15:24 47.76913 60.19848 37839 ft 407 kts 242°
2026-04-21 15:24 47.74232 60.12447 37842 ft 407 kts 242°
2026-04-21 15:25 47.71561 60.05095 37860 ft 407 kts 241°
2026-04-21 15:25 47.68870 59.97699 37854 ft 407 kts 241°
2026-04-21 15:26 47.66166 59.90318 37857 ft 407 kts 241°
2026-04-21 15:26 47.63450 59.82955 37837 ft 407 kts 241°
2026-04-21 15:27 47.60757 59.75641 37842 ft 407 kts 241°
2026-04-21 15:27 47.58042 59.68280 37855 ft 407 kts 241°
2026-04-21 15:28 47.55322 59.60940 37854 ft 406 kts 241°
2026-04-21 15:28 47.52608 59.53612 37861 ft 406 kts 241°
2026-04-21 15:29 47.49884 59.46297 37852 ft 406 kts 240°
2026-04-21 15:29 47.47150 59.38991 37867 ft 406 kts 240°
2026-04-21 15:30 47.44423 59.31688 37861 ft 406 kts 240°
2026-04-21 15:30 47.41687 59.24377 37860 ft 406 kts 240°
2026-04-21 15:31 47.38950 59.17078 37852 ft 406 kts 240°
2026-04-21 15:31 47.36216 59.09841 37857 ft 406 kts 240°
2026-04-21 15:32 47.33455 59.02558 37858 ft 406 kts 240°
2026-04-21 15:32 47.30696 58.95284 37867 ft 406 kts 240°
2026-04-21 15:33 47.27937 58.88015 37859 ft 406 kts 240°
2026-04-21 15:33 47.25172 58.80762 37869 ft 406 kts 240°
2026-04-21 15:34 47.22416 58.73555 37876 ft 406 kts 240°
2026-04-21 15:34 47.19639 58.66314 37866 ft 406 kts 240°
2026-04-21 15:35 47.16861 58.59079 37879 ft 406 kts 240°
2026-04-21 15:35 47.14068 58.51860 37879 ft 406 kts 240°
2026-04-21 15:36 47.11274 58.44647 37871 ft 406 kts 240°
2026-04-21 15:36 47.08488 58.37429 37879 ft 406 kts 240°
2026-04-21 15:37 47.05693 58.30222 37883 ft 406 kts 239°
2026-04-21 15:37 47.02909 58.23078 37882 ft 406 kts 239°
2026-04-21 15:38 47.00093 58.15884 37883 ft 406 kts 239°
2026-04-21 15:38 46.97284 58.08703 37895 ft 406 kts 239°
2026-04-21 15:39 46.94460 58.01522 37891 ft 406 kts 239°
2026-04-21 15:39 46.91639 57.94352 37894 ft 406 kts 239°
2026-04-21 15:40 46.88815 57.87202 37894 ft 406 kts 239°
2026-04-21 15:40 46.85982 57.80064 37896 ft 406 kts 239°
2026-04-21 15:41 46.83165 57.72951 37897 ft 406 kts 239°
2026-04-21 15:41 46.80329 57.65816 37898 ft 406 kts 239°
2026-04-21 15:42 46.77484 57.58694 37897 ft 406 kts 239°
2026-04-21 15:42 46.74629 57.51562 37900 ft 406 kts 239°
2026-04-21 15:43 46.71777 57.44453 37906 ft 406 kts 238°
2026-04-21 15:43 46.68917 57.37341 37900 ft 407 kts 238°
2026-04-21 15:44 46.66051 57.30224 37901 ft 407 kts 238°
2026-04-21 15:44 46.63178 57.23109 37901 ft 408 kts 238°
2026-04-21 15:45 46.60296 57.15998 37902 ft 408 kts 238°
2026-04-21 15:45 46.57411 57.08899 37905 ft 408 kts 238°
2026-04-21 15:46 46.54518 57.01798 37902 ft 409 kts 238°
2026-04-21 15:46 46.51619 56.94690 37901 ft 409 kts 238°
2026-04-21 15:47 46.48665 56.87690 37904 ft 408 kts 232°
2026-04-21 15:47 46.44622 56.81932 37908 ft 408 kts 221°
2026-04-21 15:48 46.40298 56.76573 37903 ft 409 kts 221°
2026-04-21 15:48 46.35975 56.71209 37904 ft 410 kts 221°
2026-04-21 15:49 46.31643 56.65847 37905 ft 410 kts 221°
2026-04-21 15:49 46.27300 56.60487 37911 ft 410 kts 221°
2026-04-21 15:50 46.22955 56.55150 37923 ft 410 kts 221°
2026-04-21 15:50 46.18604 56.49800 37893 ft 410 kts 221°
2026-04-21 15:51 46.14287 56.44501 37915 ft 410 kts 221°
2026-04-21 15:51 46.09947 56.39178 37921 ft 409 kts 221°
2026-04-21 15:52 46.05603 56.33871 37915 ft 409 kts 221°
2026-04-21 15:52 46.01246 56.28572 37916 ft 410 kts 221°
2026-04-21 15:53 45.96883 56.23269 37917 ft 410 kts 221°
2026-04-21 15:53 45.92521 56.17968 37920 ft 411 kts 221°
2026-04-21 15:54 45.88151 56.12681 37923 ft 411 kts 220°
2026-04-21 15:54 45.83780 56.07394 37923 ft 411 kts 220°
2026-04-21 15:55 45.79409 56.02116 37922 ft 411 kts 220°
2026-04-21 15:55 45.75063 55.96877 37913 ft 410 kts 220°
2026-04-21 15:56 45.70686 55.91635 37936 ft 411 kts 220°
2026-04-21 15:56 45.66300 55.86387 37930 ft 411 kts 220°
2026-04-21 15:57 45.61912 55.81131 37931 ft 412 kts 220°
2026-04-21 15:57 45.57515 55.75870 37930 ft 412 kts 220°
2026-04-21 15:58 45.53110 55.70621 37936 ft 413 kts 220°
2026-04-21 15:58 45.48700 55.65384 37942 ft 413 kts 220°
2026-04-21 15:59 45.44282 55.60151 37938 ft 413 kts 220°
2026-04-21 15:59 45.39862 55.54913 37941 ft 413 kts 220°
2026-04-21 16:00 45.35435 55.49687 37918 ft 413 kts 220°
2026-04-21 16:00 45.31008 55.44472 37946 ft 414 kts 220°
2026-04-21 16:01 45.26606 55.39288 37949 ft 414 kts 220°
2026-04-21 16:01 45.22170 55.34084 37944 ft 413 kts 220°
2026-04-21 16:02 45.17733 55.28890 37952 ft 413 kts 220°
2026-04-21 16:02 45.13300 55.23705 37960 ft 413 kts 220°
2026-04-21 16:03 45.08865 55.18527 37964 ft 413 kts 220°
2026-04-21 16:03 45.04539 55.13174 37960 ft 412 kts 223°
2026-04-21 16:04 45.00353 55.07624 37960 ft 412 kts 224°
2026-04-21 16:04 44.96192 55.02122 37942 ft 412 kts 223°
2026-04-21 16:05 44.92000 54.96690 37943 ft 399 kts 223°
2026-04-21 16:05 44.87876 54.91384 37686 ft 409 kts 223°
2026-04-21 16:06 44.85763 54.88662 37436 ft 413 kts 223°
2026-04-21 16:06 44.83638 54.85925 37199 ft 415 kts 223°
2026-04-21 16:06 44.81502 54.83179 36960 ft 415 kts 223°
2026-04-21 16:06 44.79366 54.80438 36737 ft 416 kts 223°
2026-04-21 16:07 44.77224 54.77692 36511 ft 416 kts 223°
2026-04-21 16:07 44.75085 54.74947 36275 ft 416 kts 223°
2026-04-21 16:07 44.72943 54.72203 36047 ft 416 kts 223°
2026-04-21 16:07 44.70804 54.69473 35821 ft 415 kts 222°
2026-04-21 16:08 44.66957 54.63535 35363 ft 412 kts 243°
2026-04-21 16:08 44.66246 54.59770 35148 ft 418 kts 261°
2026-04-21 16:09 44.66176 54.56628 34960 ft 422 kts 267°
2026-04-21 16:09 44.66403 54.52554 34773 ft 426 kts 271°
2026-04-21 16:09 44.66834 54.48424 34551 ft 427 kts 273°
2026-04-21 16:10 44.67135 54.45885 34419 ft 426 kts 273°
2026-04-21 16:10 44.67605 54.41784 34208 ft 424 kts 272°
2026-04-21 16:10 44.68008 54.37693 33992 ft 422 kts 271°
2026-04-21 16:10 44.68337 54.33606 33760 ft 419 kts 270°
2026-04-21 16:11 44.68521 54.30906 33597 ft 418 kts 269°
2026-04-21 16:11 44.68768 54.26854 33354 ft 416 kts 269°
2026-04-21 16:11 44.68999 54.22803 33104 ft 415 kts 269°
2026-04-21 16:11 44.69144 54.20258 32969 ft 414 kts 269°
2026-04-21 16:12 44.69206 54.19186 32905 ft 414 kts 269°
2026-04-21 16:12 44.69441 54.15161 32670 ft 413 kts 269°
2026-04-21 16:12 44.69688 54.11147 32431 ft 412 kts 269°
2026-04-21 16:12 44.69945 54.07135 32194 ft 411 kts 270°
2026-04-21 16:13 44.70209 54.03144 31971 ft 410 kts 270°
2026-04-21 16:13 44.70471 53.99151 31739 ft 409 kts 270°
2026-04-21 16:13 44.70725 53.95172 31509 ft 408 kts 270°
2026-04-21 16:13 44.70974 53.91189 31294 ft 407 kts 270°
2026-04-21 16:14 44.71218 53.87229 31056 ft 406 kts 270°
2026-04-21 16:14 44.71461 53.83275 30734 ft 405 kts 270°
2026-04-21 16:14 44.71703 53.79341 30390 ft 403 kts 270°
2026-04-21 16:14 44.71941 53.75468 30050 ft 402 kts 270°
2026-04-21 16:15 44.72179 53.71558 29658 ft 400 kts 270°
2026-04-21 16:15 44.72415 53.67674 29266 ft 398 kts 270°
2026-04-21 16:15 44.72647 53.63809 28892 ft 396 kts 270°
2026-04-21 16:15 44.72877 53.59958 28507 ft 395 kts 270°
2026-04-21 16:16 44.73106 53.56117 28125 ft 393 kts 270°
2026-04-21 16:16 44.73333 53.52300 27748 ft 391 kts 270°
2026-04-21 16:16 44.73559 53.48488 27387 ft 390 kts 270°
2026-04-21 16:16 44.73779 53.44690 27015 ft 389 kts 270°
2026-04-21 16:17 44.73995 53.40910 26662 ft 387 kts 270°
2026-04-21 16:17 44.74213 53.37147 26303 ft 385 kts 270°
2026-04-21 16:17 44.74430 53.33393 25949 ft 384 kts 270°
2026-04-21 16:17 44.74645 53.29667 25604 ft 382 kts 270°
2026-04-21 16:18 44.74857 53.25942 25257 ft 381 kts 269°
2026-04-21 16:18 44.75062 53.22241 24927 ft 379 kts 269°
2026-04-21 16:18 44.75263 53.18596 24593 ft 378 kts 269°
2026-04-21 16:18 44.75469 53.14920 24258 ft 376 kts 269°
2026-04-21 16:19 44.75674 53.11254 23941 ft 375 kts 269°
2026-04-21 16:19 44.75876 53.07598 23621 ft 374 kts 269°
2026-04-21 16:19 44.76076 53.03959 23255 ft 372 kts 269°
2026-04-21 16:19 44.76275 53.00325 22868 ft 370 kts 269°
2026-04-21 16:20 44.76470 52.96724 22493 ft 368 kts 269°
2026-04-21 16:20 44.76663 52.93145 22113 ft 366 kts 270°
2026-04-21 16:20 44.76854 52.89581 21754 ft 364 kts 270°
2026-04-21 16:20 44.77042 52.86043 21390 ft 362 kts 270°
2026-04-21 16:21 44.77227 52.82527 21031 ft 360 kts 270°
2026-04-21 16:21 44.77407 52.79024 20676 ft 358 kts 270°
2026-04-21 16:21 44.77588 52.75544 20325 ft 356 kts 270°
2026-04-21 16:21 44.77769 52.72082 19973 ft 354 kts 270°
2026-04-21 16:22 44.77950 52.68633 19633 ft 352 kts 270°
2026-04-21 16:22 44.78131 52.65208 19297 ft 350 kts 271°
2026-04-21 16:22 44.78306 52.61846 18967 ft 348 kts 271°
2026-04-21 16:22 44.78484 52.58448 18636 ft 347 kts 271°
2026-04-21 16:23 44.78660 52.55070 18319 ft 345 kts 271°
2026-04-21 16:23 44.78826 52.51703 17948 ft 344 kts 271°
2026-04-21 16:23 44.78988 52.48345 17582 ft 343 kts 271°
2026-04-21 16:23 44.79148 52.44999 17211 ft 343 kts 271°
2026-04-21 16:24 44.79308 52.41650 16843 ft 341 kts 271°
2026-04-21 16:24 44.79468 52.38313 16473 ft 340 kts 271°
2026-04-21 16:24 44.79629 52.34994 16119 ft 339 kts 271°
2026-04-21 16:24 44.79787 52.31737 15771 ft 337 kts 271°
2026-04-21 16:25 44.79947 52.28443 15420 ft 336 kts 271°
2026-04-21 16:25 44.80102 52.25170 15075 ft 335 kts 271°
2026-04-21 16:25 44.80255 52.21899 14734 ft 334 kts 271°
2026-04-21 16:25 44.80408 52.18643 14397 ft 333 kts 271°
2026-04-21 16:26 44.80561 52.15397 14064 ft 332 kts 271°
2026-04-21 16:26 44.80712 52.12161 13727 ft 331 kts 271°
2026-04-21 16:26 44.80861 52.08931 13353 ft 329 kts 271°
2026-04-21 16:26 44.81009 52.05722 12985 ft 328 kts 271°
2026-04-21 16:27 44.81154 52.02530 12576 ft 326 kts 271°
2026-04-21 16:27 44.81299 51.99315 12055 ft 328 kts 271°
2026-04-21 16:27 44.81432 51.96124 11750 ft 321 kts 269°
2026-04-21 16:27 44.81217 51.93091 11922 ft 307 kts 255°
2026-04-21 16:28 44.80517 51.90282 11928 ft 303 kts 242°
2026-04-21 16:28 44.79383 51.87819 11685 ft 299 kts 227°
2026-04-21 16:28 44.77920 51.85823 11443 ft 297 kts 220°
2026-04-21 16:28 44.76375 51.83900 11188 ft 297 kts 220°
2026-04-21 16:29 44.74838 51.81968 10945 ft 296 kts 220°
2026-04-21 16:29 44.73301 51.80030 10699 ft 296 kts 220°
2026-04-21 16:29 44.71770 51.78099 10455 ft 296 kts 220°
2026-04-21 16:29 44.70239 51.76164 10213 ft 296 kts 220°
2026-04-21 16:30 44.68704 51.74225 9972 ft 295 kts 220°
2026-04-21 16:30 44.67192 51.72316 9836 ft 291 kts 220°
2026-04-21 16:30 44.65685 51.70415 9714 ft 291 kts 220°
2026-04-21 16:30 44.64175 51.68514 9581 ft 291 kts 220°
2026-04-21 16:31 44.62669 51.66622 9445 ft 290 kts 220°
2026-04-21 16:31 44.61167 51.64737 9308 ft 289 kts 221°
2026-04-21 16:31 44.59666 51.62854 9184 ft 289 kts 220°
2026-04-21 16:31 44.58170 51.60978 9039 ft 288 kts 221°
2026-04-21 16:32 44.56675 51.59114 8920 ft 287 kts 220°
2026-04-21 16:32 44.55181 51.57252 8765 ft 287 kts 220°
2026-04-21 16:32 44.53690 51.55387 8655 ft 286 kts 220°
2026-04-21 16:32 44.52206 51.53531 8531 ft 286 kts 221°
2026-04-21 16:33 44.50726 51.51681 8391 ft 285 kts 220°
2026-04-21 16:33 44.49247 51.49831 8276 ft 284 kts 220°
2026-04-21 16:33 44.47772 51.47989 8147 ft 285 kts 220°
2026-04-21 16:33 44.46290 51.46143 8014 ft 284 kts 220°
2026-04-21 16:34 44.44814 51.44307 7904 ft 285 kts 221°
2026-04-21 16:34 44.43356 51.42494 7766 ft 283 kts 220°
2026-04-21 16:34 44.41883 51.40662 7639 ft 283 kts 220°
2026-04-21 16:34 44.40409 51.38831 7512 ft 283 kts 220°
2026-04-21 16:35 44.38935 51.37001 7389 ft 282 kts 221°
2026-04-21 16:35 44.37469 51.35182 7264 ft 282 kts 221°
2026-04-21 16:35 44.36005 51.33366 7142 ft 282 kts 221°
2026-04-21 16:35 44.34542 51.31557 7018 ft 280 kts 221°
2026-04-21 16:36 44.33084 51.29758 6890 ft 279 kts 222°
2026-04-21 16:36 44.31628 51.27957 6771 ft 280 kts 222°
2026-04-21 16:36 44.30166 51.26151 6646 ft 280 kts 221°
2026-04-21 16:36 44.28709 51.24353 6523 ft 279 kts 222°
2026-04-21 16:37 44.27256 51.22559 6399 ft 279 kts 222°
2026-04-21 16:37 44.25804 51.20767 6278 ft 279 kts 222°
2026-04-21 16:37 44.24350 51.18972 6140 ft 278 kts 221°
2026-04-21 16:37 44.22906 51.17190 6017 ft 278 kts 221°
2026-04-21 16:38 44.21460 51.15408 5876 ft 277 kts 221°
2026-04-21 16:38 44.20018 51.13633 5750 ft 275 kts 221°
2026-04-21 16:38 44.18589 51.11873 5623 ft 274 kts 221°
2026-04-21 16:38 44.17156 51.10111 5488 ft 274 kts 221°
2026-04-21 16:39 44.15744 51.08377 5368 ft 273 kts 221°
2026-04-21 16:39 44.14322 51.06630 5236 ft 272 kts 221°
2026-04-21 16:39 44.12903 51.04888 5110 ft 272 kts 221°
2026-04-21 16:39 44.11486 51.03155 4993 ft 271 kts 221°
2026-04-21 16:40 44.10076 51.01430 4850 ft 269 kts 221°
2026-04-21 16:40 44.08672 50.99716 4734 ft 268 kts 221°
2026-04-21 16:40 44.07267 50.98004 4455 ft 267 kts 221°
2026-04-21 16:40 44.05873 50.96303 4098 ft 267 kts 221°
2026-04-21 16:41 44.04928 50.95151 3758 ft 268 kts 221°
2026-04-21 16:41 44.03064 50.92874 3122 ft 271 kts 221°
2026-04-21 16:41 44.01583 50.91241 2620 ft 273 kts 211°
2026-04-21 16:41 43.99843 50.90214 2139 ft 273 kts 193°
2026-04-21 16:42 43.98004 50.89977 1999 ft 258 kts 175°
2026-04-21 16:42 43.96311 50.90431 2007 ft 239 kts 159°
2026-04-21 16:42 43.94876 50.91386 2008 ft 221 kts 144°
2026-04-21 16:42 43.93732 50.92683 2005 ft 203 kts 131°
2026-04-21 16:43 43.92894 50.94180 2013 ft 188 kts 121°
2026-04-21 16:43 43.92238 50.95598 1997 ft 164 kts 120°
2026-04-21 16:43 43.91647 50.96880 1873 ft 154 kts 120°
2026-04-21 16:43 43.91078 50.98112 1711 ft 150 kts 118°
2026-04-21 16:44 43.90527 50.99308 1519 ft 144 kts 119°
2026-04-21 16:44 43.89985 51.00483 1324 ft 145 kts 120°
2026-04-21 16:44 43.89452 51.01637 1119 ft 144 kts 120°
2026-04-21 16:44 43.88902 51.02829 917 ft 146 kts 120°
2026-04-21 16:45 43.88360 51.04013 703 ft 147 kts 121°
2026-04-21 16:45 43.87807 51.05206 476 ft 147 kts 122°
2026-04-21 16:45 43.87257 51.06387 294 ft 146 kts 123°
2026-04-21 16:45 43.86716 51.07557 148 ft 143 kts 122°
2026-04-21 16:46 43.86212 51.08663 88 ft 117 kts 123°
2026-04-21 16:46 43.85892 51.09339 87 ft 32 kts 123°
2026-04-21 16:46 43.85780 51.09429 84 ft 11 kts 217°
2026-04-21 16:46 43.85717 51.09363 83 ft 11 kts 215°
2026-04-21 16:47 43.85659 51.09307 81 ft 10 kts 214°
2026-04-21 16:47 43.85611 51.09254 85 ft 8 kts 238°
2026-04-21 16:47 43.85634 51.09154 82 ft 14 kts 303°
2026-04-21 16:47 43.85683 51.09048 83 ft 12 kts 303°
2026-04-21 16:48 43.85719 51.08956 85 ft 8 kts 271°
2026-04-21 16:48 43.85710 51.08888 82 ft 6 kts 230°
2026-04-21 16:48 43.85677 51.08874 84 ft 0 kts 192°
2026-04-21 16:48 43.85677 51.08875 84 ft 0 kts 192°